Home > Weather > Kaunas > Past weeks

Flag for Lithuania Weather for the Past 2 Weeks in Kaunas, Lithuania

Now
39 °F

Clear.


Feels Like: 32 °F
Forecast: 36 / 43 °F
Wind: 12 mph from South

Location: Kaunas

Current Time: Feb 7, 2016 at 8:01:29 PM

Latest Report: Feb 7, 2016 at 7:20 PM


Visibility: 10 mi

Pressure: 29.83 "Hg

Humidity: 70%

Dew point: 30 °F

Location of KaunasLocation

Historic Weather in Kaunas — Graph

°F

Kaunas Temperature Yesterday

Maximum temperature yesterday: 37 °F (at 6:20 PM)
Minimum temperature yesterday: 27 °F (at 1:20 AM)
Average temperature yesterday: 33 °F

High & Low Weather Summary for the Past Weeks

 TemperatureHumidityPressure
High45 °F (Jan 28, 11:20 AM)100% (Jan 25, 1:20 AM)30.48 "Hg (Jan 25, 1:20 AM)
Low14 °F (Jan 23, 8:20 PM)61% (Feb 7, 1:50 PM)29.30 "Hg (Jan 31, 4:20 AM)
Average35 °F85%29.81 "Hg
* Reported Jan 23 6:20 PM — Feb 7 6:50 PM, Kaunas, Weather by CustomWeather, © 2016

Note: Actual official high and low records may vary slightly from our data, if they occured in-between our weather recording intervals... More about our weather records

Advertising

Kaunas Weather History for the Previous 24 Hours

 ConditionsComfort  
Time TempWeatherWind HumidityBarometerVisibility
6:50 PM
Sun, Feb 7
39 °FClear.12 mph70%29.86 "Hg10 mi
6:20 PM39 °FPassing clouds.10 mph70%29.83 "HgN/A
5:20 PM41 °FClear.10 mph66%29.86 "Hg10 mi
4:50 PM43 °FPassing clouds.9 mph61%29.86 "HgN/A
4:20 PM43 °FPassing clouds.14 mph61%29.86 "HgN/A
3:50 PM45 °FSunny.10 mph61%29.86 "Hg10 mi
3:20 PM45 °FPassing clouds.10 mph61%29.86 "HgN/A
2:50 PM45 °FPassing clouds.13 mph61%29.86 "HgN/A
2:20 PM45 °FPassing clouds.12 mph61%29.86 "HgN/A
1:50 PM45 °FPassing clouds.12 mph61%29.89 "HgN/A
1:20 PM43 °FPassing clouds.12 mph66%29.89 "HgN/A
12:50 PM41 °FSunny.13 mph66%29.89 "Hg10 mi
12:20 PM41 °FPassing clouds.12 mph66%29.89 "HgN/A
11:50 AM39 °FPassing clouds.13 mph70%29.92 "HgN/A
11:20 AM39 °FPassing clouds.14 mph70%29.92 "HgN/A
10:50 AM37 °FPassing clouds.13 mph75%29.92 "HgN/A
10:20 AM37 °FPassing clouds.15 mph75%29.92 "HgN/A
9:50 AM36 °FPassing clouds.14 mph81%29.92 "HgN/A
9:20 AM36 °FSunny.12 mph75%29.92 "Hg10 mi
8:50 AM34 °FSunny.12 mph81%29.92 "Hg10 mi
8:20 AM34 °FSunny.9 mph81%29.92 "Hg10 mi
7:50 AM34 °FPassing clouds.9 mph87%29.92 "HgN/A
7:20 AM34 °FPassing clouds.10 mph87%29.92 "HgN/A
6:50 AM36 °FClear.10 mph81%29.92 "Hg10 mi
6:20 AM34 °FPassing clouds.8 mph87%29.95 "HgN/A
5:20 AM34 °FClear.8 mph87%29.95 "Hg6 mi
4:50 AM36 °FClear.9 mph81%29.95 "Hg4 mi
4:20 AM36 °FClear.10 mph87%29.95 "Hg4 mi
3:20 AM36 °FPassing clouds.9 mph87%29.98 "Hg6 mi
3:02 AM36 °FPassing clouds.10 mph87%29.95 "Hg5 mi
2:20 AM37 °FLow clouds.14 mph81%29.98 "Hg6 mi
1:50 AM37 °FOvercast.13 mph81%29.98 "HgN/A
1:20 AM37 °FOvercast.10 mph81%29.98 "HgN/A
1:04 AM37 °FOvercast.10 mph81%30.01 "HgN/A
12:20 AM37 °FOvercast.9 mph81%30.01 "HgN/A
11:50 PM
Sat, Feb 6
37 °FOvercast.7 mph81%30.04 "HgN/A
10:50 PM36 °FOvercast.7 mph87%30.04 "HgN/A
10:20 PM36 °FLow clouds.7 mph87%30.04 "HgN/A
9:50 PM36 °FOvercast.9 mph87%30.04 "HgN/A
9:20 PM36 °FOvercast.8 mph87%30.04 "HgN/A
8:50 PM36 °FOvercast.9 mph87%30.04 "HgN/A
8:20 PM36 °FMostly cloudy.8 mph87%30.04 "HgN/A
Weather by CustomWeather, © 2016

See weather overviewHow to use our weather pages